Location: Newark
(12.4436°N, 0.6167°W)
Time: 07:51:14
(UTC+00:00)

Vanguard 2 - Pass Details

Date: 16 December 2019
Orbit: 553 x 2938 km, 32.9° (Epoch: 28 January)

Event Time Altitude Azimuth Distance (km) Brightness Sun altitude
Rises 03:16:53 0° 300° (WNW) 6,161 - -41.6°
Reaches altitude 10° 03:21:12 10° 308° (NW) 5,389 - -40.7°
Exits shadow 03:32:26 36° 347° (NNW) 3,980 10.8 -38.1°
Maximum altitude 03:36:46 40° 13° (NNE) 3,833 10.8 -37.1°
Drops below altitude 10° 03:52:11 10° 78° (ENE) 5,361 12.4 -33.5°
Sets 03:56:25 0° 85° (E) 6,130 13.0 -32.6°
